User: anonymous   Login
Location: Unspecified
(0.0000°N, 0.0000°E)
Time: 19:00:17
(UTC+00:00)
Language:

STARLINK-2550 - Orbit

View from above orbital plane
View from above orbital plane
View from above satellite
View from above satellite

Ground track
Ground track

The orbit is defined by the following mean orbital elements,

1 48293U          26145.23225932 +.00000000 +00000-0 +27506-4 0 00009
2 48293  53.1606  79.4065 0001171  86.5098 273.6038 15.31703374    09
Epoch (UTC): 25 May 2026 05:34:27
Eccentricity: 0.0001171
inclination: 53.1606°
perigee height: 470 km
apogee height: 472 km
right ascension of ascending node: 79.4065°
argument of perigee: 86.5098°
revolutions per day: 15.31703374
mean anomaly at epoch: 273.6038°

The dashed part of the orbit path shows where the satellite is in the earth's shadow,  

DLR